Track COSMOS 1711 (GLONASS) now! COSMOS 1711 (GLONASS) is classified as:
1 16397U 85118B 22225.44561462 -.00000073 00000-0 00000-0 0 9995 2 16397 66.3928 10.6187 0008724 187.6933 243.7541 2.13101251284841